Location: Brno
(49.2000°N, 16.6330°E)
Time: 00:41:32
(UTC+02:00)

X-37B - Pass Details

Date: 17 June 2021
Orbit: 383 x 392 km, 45.0° (Epoch: 01 July)

Event Time Altitude Azimuth Distance (km) Brightness Sun altitude
Exits shadow 02:12:04 26° 147° (SSE) 789 1.8 -15.4°
Drops below altitude 10° 02:14:21 10° 104° (ESE) 1,407 3.5 -15.3°
Sets 02:16:35 0° 92° (E) 2,264 4.7 -15.1°
